Time,TemperatureF,DewpointF,PressureIn,WindDirection,WindDirectionDegrees,WindSpeedMPH,WindSpeedGustMPH,Humidity,HourlyPrecipIn,Conditions,Clouds,dailyrainin,SoftwareType,DateUTC
2013-09-09 00:21:00,65.0,64.0,30.06,North,0,0.0,0.0,95,0.00,,,-99.99,,2013-09-09 07:21:00,
2013-09-09 00:52:00,65.0,63.0,30.06,North,0,0.0,0.0,94,0.00,,,-99.99,,2013-09-09 07:52:00,
2013-09-09 01:21:00,66.0,64.0,30.06,North,0,0.0,0.0,93,0.00,,,-99.99,,2013-09-09 08:21:00,
2013-09-09 01:52:00,65.0,63.0,30.06,North,0,0.0,0.0,94,0.00,,,-99.99,,2013-09-09 08:52:00,
2013-09-09 02:22:00,63.0,62.0,30.06,North,0,0.0,0.0,96,0.00,,,-99.99,,2013-09-09 09:22:00,
2013-09-09 02:53:00,63.0,63.0,30.05,North,0,0.0,0.0,99,0.00,,,-99.99,,2013-09-09 09:53:00,
2013-09-09 03:23:00,64.0,63.0,30.05,North,0,0.0,0.0,98,0.00,,,-99.99,,2013-09-09 10:23:00,
2013-09-09 03:52:00,64.0,63.0,30.04,North,0,0.0,0.0,98,0.00,,,-99.99,,2013-09-09 10:52:00,
2013-09-09 04:21:00,64.0,63.0,30.04,North,0,0.0,0.0,98,0.00,,,-99.99,,2013-09-09 11:21:00,
2013-09-09 04:52:00,64.0,63.0,30.04,North,0,0.0,0.0,98,0.00,,,-99.99,,2013-09-09 11:52:00,
2013-09-09 05:22:00,64.0,63.0,30.04,North,0,0.0,0.0,97,0.00,,,-99.99,,2013-09-09 12:22:00,
2013-09-09 05:52:00,63.0,62.0,30.04,North,0,0.0,0.0,97,0.00,,,-99.99,,2013-09-09 12:52:00,
2013-09-09 06:21:00,61.0,60.0,30.05,North,0,0.0,0.0,95,0.00,,,-99.99,,2013-09-09 13:21:00,
2013-09-09 06:52:00,60.0,59.0,30.05,North,0,0.0,0.0,98,0.00,,,-99.99,,2013-09-09 13:52:00,
2013-09-09 07:21:00,61.0,61.0,30.05,North,0,0.0,0.0,100,0.00,,,-99.99,,2013-09-09 14:21:00,
2013-09-09 07:52:00,62.0,62.0,30.05,North,0,0.0,0.0,100,0.00,,,-99.99,,2013-09-09 14:52:00,
2013-09-09 08:53:00,63.0,63.0,30.06,North,0,0.0,0.0,100,0.00,,,-99.99,,2013-09-09 15:53:00,
2013-09-09 09:24:00,63.0,63.0,30.06,North,0,0.0,0.0,100,0.00,,,-99.99,,2013-09-09 16:24:00,
2013-09-09 09:54:00,67.0,66.0,30.06,North,0,0.0,0.0,96,0.00,,,-99.99,,2013-09-09 16:54:00,
2013-09-09 10:23:00,70.0,65.0,30.06,North,0,0.0,0.0,84,0.00,,,-99.99,,2013-09-09 17:23:00,
2013-09-09 10:53:00,69.0,64.0,30.06,North,0,0.0,0.0,85,0.00,,,-99.99,,2013-09-09 17:53:00,
2013-09-09 11:21:00,70.0,65.0,30.06,North,0,0.0,0.0,85,0.00,,,-99.99,,2013-09-09 18:21:00,
2013-09-09 11:52:00,71.0,66.0,30.06,North,0,0.0,0.0,83,0.00,,,-99.99,,2013-09-09 18:52:00,
2013-09-09 12:22:00,75.0,67.0,30.06,North,0,0.0,0.0,77,0.12,,,-99.99,,2013-09-09 19:22:00,
2013-09-09 12:52:00,79.0,67.0,30.05,North,0,0.0,0.0,66,0.12,,,-99.99,,2013-09-09 19:52:00,
2013-09-09 13:21:00,80.0,67.0,30.05,North,0,0.0,0.0,65,0.00,,,-99.99,,2013-09-09 20:21:00,
2013-09-09 13:53:00,80.0,66.0,30.04,North,0,0.0,0.0,63,0.00,,,-99.99,,2013-09-09 20:53:00,
2013-09-09 14:22:00,81.0,66.0,30.04,North,0,0.0,0.0,61,0.00,,,-99.99,,2013-09-09 21:22:00,
2013-09-09 14:54:00,80.0,66.0,30.03,North,0,0.0,0.0,63,0.00,,,-99.99,,2013-09-09 21:54:00,
2013-09-09 15:24:00,81.0,67.0,30.02,North,0,0.0,0.0,63,0.00,,,-99.99,,2013-09-09 22:24:00,
2013-09-09 15:54:00,81.0,66.0,30.01,North,0,0.0,0.0,61,0.00,,,-99.99,,2013-09-09 22:54:00,
2013-09-09 16:22:00,81.0,67.0,30.01,North,0,0.0,0.0,62,0.00,,,-99.99,,2013-09-09 23:22:00,
2013-09-09 16:52:00,81.0,67.0,30.00,North,0,0.0,0.0,62,0.00,,,-99.99,,2013-09-09 23:52:00,
2013-09-09 17:21:00,80.0,66.0,30.00,North,0,0.0,0.0,63,0.00,,,-99.99,,2013-09-10 00:21:00,
2013-09-09 17:52:00,78.0,65.0,29.99,North,0,0.0,0.0,65,0.00,,,-99.99,,2013-09-10 00:52:00,
2013-09-09 18:21:00,77.0,66.0,29.98,North,0,0.0,0.0,68,0.00,,,-99.99,,2013-09-10 01:21:00,
2013-09-09 18:52:00,75.0,66.0,29.98,North,0,0.0,0.0,73,0.00,,,-99.99,,2013-09-10 01:52:00,
2013-09-09 19:22:00,73.0,65.0,29.98,North,0,0.0,0.0,77,0.00,,,-99.99,,2013-09-10 02:22:00,
2013-09-09 19:52:00,71.0,65.0,29.97,North,0,0.0,0.0,81,0.00,,,-99.99,,2013-09-10 02:52:00,
2013-09-09 20:22:00,69.0,64.0,29.98,North,0,0.0,0.0,84,0.00,,,-99.99,,2013-09-10 03:22:00,
2013-09-09 20:54:00,68.0,64.0,29.98,North,0,0.0,0.0,87,0.00,,,-99.99,,2013-09-10 03:54:00,
2013-09-09 21:24:00,68.0,65.0,29.98,North,0,0.0,0.0,90,0.00,,,-99.99,,2013-09-10 04:24:00,
2013-09-09 21:53:00,69.0,66.0,29.98,North,0,0.0,0.0,90,0.00,,,-99.99,,2013-09-10 04:53:00,
2013-09-09 22:23:00,70.0,66.0,29.98,North,0,0.0,0.0,88,0.00,,,-99.99,,2013-09-10 05:23:00,
2013-09-09 22:53:00,71.0,66.0,29.98,North,0,0.0,0.0,85,0.13,,,-99.99,,2013-09-10 05:53:00,
2013-09-09 23:22:00,71.0,65.0,29.98,North,0,0.0,0.0,82,0.16,,,-99.99,,2013-09-10 06:22:00,
2013-09-09 23:52:00,71.0,66.0,29.97,North,0,0.0,0.0,83,0.13,,,-99.99,,2013-09-10 06:52:00,